Flag for U.S.A. Weather past 2 weeks in Wright, Florida, U.S.A.

Now
64 °F

Sunny.


Feels Like: 64 °F
Forecast: 59 / 77 °F
Wind: 6 mph from North

Location: Hurlburt Field

Current Time: May 3, 2015 at 9:06:49 AM

Latest Report: May 3, 2015 at 7:58 AM


Visibility: 10 mi

Pressure: 30.14 "Hg

Humidity: 73%

Dew point: 56 °F

Location of WrightLocation

Historic Weather in Wright — Graph

°F

Wright temperature yesterday

Maximum temperature yesterday: 77 °F (at 12:58 PM)
Minimum temperature yesterday: 51 °F (at 4:58 AM)
Average temperature yesterday: 66 °F

Past Weeks' High & Low Weather Summary

 TemperatureHumidityPressure
High82 °F (Apr 22, 11:58 AM)94% (Apr 23, 1:58 AM)30.11 "Hg (Apr 23, 1:58 AM)
Low51 °F (May 2, 4:58 AM)20% (May 1, 4:58 PM)29.70 "Hg (Apr 25, 5:58 PM)
Average70 °F70%29.88 "Hg
* Reported Apr 18 6:58 AM — May 3 6:58 AM, Wright, Weather by CustomWeather, © 2015

Note: Actual official high and low records may vary slightly from our data, if they occured in-between our weather recording intervals... More about our weather records

Advertising

Wright weather history for previous 24 hours

 ConditionsComfort  
Time TempWeatherWind HumidityBarometerVisibility
6:58 AM
Sun, May 3
56 °FSunny.2 mph88%30.11 "Hg10 mi
5:58 AM53 °FClear.2 mph90%30.09 "Hg10 mi
4:58 AM53 °FClear.2 mph88%30.07 "Hg10 mi
3:58 AM54 °FClear.2 mph88%30.06 "Hg10 mi
2:58 AM54 °FClear.2 mph87%30.06 "Hg10 mi
1:58 AM55 °FClear.2 mph86%30.07 "Hg10 mi
12:58 AM57 °FClear.2 mph84%30.09 "Hg10 mi
11:58 PM
Sat, May 2
57 °FClear.2 mph84%30.09 "Hg10 mi
10:58 PM60 °FClear.No wind78%30.09 "Hg10 mi
9:58 PM60 °FClear.2 mph81%30.09 "Hg10 mi
8:58 PM70 °FClear.2 mph50%30.07 "Hg10 mi
7:58 PM71 °FClear.2 mph46%30.06 "Hg10 mi
6:58 PM72 °FSunny.5 mph40%30.04 "Hg10 mi
5:58 PM74 °FSunny.9 mph37%30.04 "Hg10 mi
4:58 PM75 °FSunny.9 mph33%30.03 "Hg10 mi
3:58 PM77 °FSunny.10 mph31%30.04 "Hg10 mi
2:58 PM76 °FSunny.10 mph31%30.06 "Hg10 mi
1:58 PM76 °FSunny.12 mph31%30.09 "Hg10 mi
12:58 PM77 °FSunny.10 mph29%30.11 "Hg10 mi
11:58 AM76 °FSunny.9 mph28%30.11 "Hg10 mi
10:58 AM75 °FSunny.7 mph27%30.10 "Hg10 mi
9:58 AM75 °FSunny.3 mph29%30.10 "Hg10 mi
Weather by CustomWeather, © 2015

See weather overviewHow to use our weather pages